Location: Adrasan
(36.3319°N, 30.4314°E)
Time: 03:30:54
(UTC+00:00)

COSMO-SKYMED 1 - Pass Details

Date: 22 October 2025
Orbit: 580 x 582 km, 97.9° (Epoch: 13 November)

Event Time Altitude Azimuth Distance (km) Brightness Sun altitude
Rises 03:13:57 0° 159° (SSE) 2,794 6.3 -12.3°
Reaches altitude 10° 03:16:06 10° 156° (SSE) 1,898 5.5 -11.9°
Maximum altitude 03:20:10 63° 76° (ENE) 656 3.0 -11.1°
Drops below altitude 10° 03:24:15 10° 355° (N) 1,909 5.0 -10.3°
Sets 03:26:26 0° 352° (N) 2,812 5.8 -9.8°
